Wind_Speed
32 33 32 28 27 28 28 33 35 29 39 32 31 38 34 35 42 32 32 32 36 38 34 32 31 30 30 32 32 33 39 42 47 48 49 48 51 53 58 66 67 44 38 55 52 58 51 47 54 44 36 38 34 29
32 36 34 29 25 26 25 35 36 40 42 35 35 39 34 36 42 31 33 34 37 35 32 29 28 29 28 27 32 34 37 40 42 44 40 37 46 48 55 60 49 40 34 39 50 51 48 53 50 47 44 40 42 42
40 34 33 26 26 31 34 37 39 38 37 36 34 33 32 32 31 36 38 38 35 31 30 27 25 22 25 30 31 29 33 36 38 32 26 28 36 41 52 42 26 28 26 36 42 53 51 49 48 47 40 42 43 39
34 38 33 28 27 26 31 33 38 36 33 32 29 31 32 30 31 31 30 29 29 27 24 24 21 22 24 26 27 28 32 31 32 30 28 22 32 45 58 38 29 25 38 35 39 42 44 39 48 50 45 39 37 41
32 28 22 21 21 28 30 28 31 34 34 31 32 31 34 36 34 32 31 30 26 22 20 20 19 18 20 23 25 27 31 32 35 32 31 29 27 42 53 32 20 28 32 33 42 40 35 41 43 44 42 43 35 37
36 32 30 30 33 33 34 31 30 29 34 33 33 32 32 33 34 32 30 27 23 22 18 16 12 10 9 7 15 25 30 37 37 32 33 33 31 50 46 40 29 29 29 27 37 42 39 41 41 37 36 37 36 39
23 26 28 30 33 31 25 30 37 33 36 35 35 34 34 33 31 33 31 27 27 27 22 19 14 7 1 3 8 11 28 36 40 34 32 32 35 55 44 32 30 29 29 32 35 37 38 36 37 35 33 32 36 42
24 24 24 21 21 28 24 23 26 39 38 35 33 31 31 32 32 36 35 33 31 28 24 20 17 15 8 8 10 15 13 17 26 32 31 27 29 42 32 33 31 29 26 29 34 36 41 44 39 38 38 43 49 42
22 22 19 16 13 12 9 7 7 21 34 37 31 29 31 32 38 40 37 36 35 32 26 24 19 15 17 12 13 14 16 15 26 31 31 30 31 32 32 32 29 28 23 18 26 30 36 40 37 41 41 42 42 38
22 21 20 17 15 13 11 9 7 6 7 10 23 35 33 30 32 38 38 38 35 32 26 22 18 17 16 17 17 17 25 19 24 28 35 37 35 34 33 32 27 24 18 15 23 30 36 35 34 38 42 48 53 50
21 19 20 17 18 18 16 14 15 15 12 11 10 16 26 33 36 37 43 42 37 33 28 25 24 23 19 20 22 27 24 29 18 26 26 37 39 36 34 31 28 28 30 30 28 31 28 34 35 38 41 46 47 47
25 21 19 21 20 21 19 18 20 22 21 20 16 13 10 15 24 33 35 38 37 37 34 30 28 26 26 27 30 35 29 32 27 21 26 32 39 39 39 34 23 24 28 24 26 25 30 35 39 42 45 47 49 49
22 25 26 24 25 26 24 23 25 24 25 27 24 24 22 22 27 30 34 36 37 36 35 33 31 30 31 33 37 34 34 30 28 21 20 26 32 40 41 37 30 27 28 31 29 30 30 28 32 39 42 45 46 47
14 20 26 32 35 34 32 29 29 30 32 28 27 27 28 28 29 31 33 34 36 36 36 35 35 35 36 37 38 38 35 30 28 22 19 24 25 33 40 43 39 37 34 31 32 31 30 30 31 33 35 39 42 44
9 11 12 14 19 25 34 38 40 37 34 35 36 34 32 32 33 32 35 34 34 35 36 38 40 44 46 44 40 35 33 28 26 22 18 21 27 26 31 37 39 41 36 36 37 34 34 35 38 40 41 43 46 46
4 4 5 8 9 10 11 12 14 14 15 19 24 25 27 29 32 36 35 36 36 37 39 41 38 32 27 25 25 26 28 22 18 18 19 18 22 29 30 30 33 36 37 39 41 45 45 43 43 43 42 43 45 45
8 6 5 3 2 3 4 4 5 8 12 13 14 18 19 22 25 27 28 29 29 28 24 20 20 20 18 18 16 16 16 15 15 15 16 18 18 22 29 35 32 30 33 38 42 44 47 47 46 47 49 49 49 50
13 11 9 8 8 7 5 5 4 2 3 6 8 10 12 15 19 19 22 25 27 22 23 23 21 20 18 17 17 16 16 14 12 13 16 17 18 20 23 26 29 32 34 34 36 38 41 44 46 47 48 50 53 53
16 15 13 10 10 11 8 8 10 5 5 5 7 8 10 12 15 15 19 26 33 30 29 27 24 22 20 18 17 18 19 18 15 14 14 14 15 16 19 22 24 27 30 32 33 35 37 39 41 43 45 46 48 51
15 13 11 11 14 14 8 8 9 8 7 7 6 5 5 8 11 15 18 19 24 29 28 27 25 24 22 20 18 17 17 18 18 18 19 19 19 19 20 20 22 24 25 27 29 31 32 35 37 39 41 44 46 48
13 12 9 11 14 14 8 11 8 9 8 8 6 4 4 3 4 7 12 15 19 22 22 23 22 22 21 21 22 21 22 23 25 25 24 25 26 26 27 28 30 31 32 33 34 36 37 39 41 44 46 48 50 53
26 24 20 16 14 10 8 9 8 7 7 6 5 4 3 2 1 2 4 7 9 13 16 19 23 24 24 24 24 25 25 25 26 26 26 27 28 29 30 32 33 35 37 38 40 41 43 45 47 49 52 54 56 58
36 31 26 25 23 22 21 19 16 13 10 8 5 4 3 2 2 1 2 4 5 7 10 12 14 16 18 20 21 22 23 24 25 26 27 27 28 30 31 33 35 36 37 39 41 43 44 46 48 50 52 54 57 59
44 37 36 34 32 29 26 23 22 20 19 17 16 13 11 9 6 4 3 3 4 5 7 9 10 12 13 15 16 18 19 20 21 22 24 25 26 28 29 30 31 33 35 36 38 39 41 43 44 45 47 48 49 48
45 45 46 44 43 40 37 34 31 28 25 22 20 19 17 15 14 12 11 9 7 6 5 5 5 6 7 9 10 12 14 16 17 19 20 22 24 24 25 27 27 27 30 31 32 34 34 35 35 35 36 35 33 33
40 41 42 42 41 40 39 39 38 36 34 32 30 28 25 23 21 19 17 15 13 11 10 8 7 6 6 7 8 9 10 11 12 13 15 16 18 20 21 23 23 22 22 24 25 26 27 27 26 27 30 34 35 35
38 37 36 35 34 34 34 34 34 33 32 31 31 30 29 27 26 25 24 23 21 19 18 16 15 13 12 11 10 9 8 8 9 9 9 10 11 13 15 16 15 16 18 20 23 26 28 32 34 37 39 43 46 48
35 34 33 32 31 31 30 29 28 27 27 27 26 25 25 25 24 23 22 20 19 18 17 16 16 15 15 14 14 13 13 13 13 13 12 12 13 15 17 19 22 24 27 29 31 33 35 38 40 43 47 49 52 56
34 33 31 30 29 28 27 26 25 24 23 23 22 21 21 20 20 19 19 18 18 18 19 19 19 18 18 18 17 18 18 18 19 19 19 20 21 21 22 24 26 28 31 33 36 38 40 43 46 49 52 54 57 61
33 33 33 32 31 30 29 27 25 24 23 22 21 21 20 19 18 18 18 19 18 18 18 18 18 19 19 20 20 21 21 22 22 23 24 25 25 26 28 30 31 33 35 37 39 41 44 47 49 52 53 56 59 63
28 30 30 30 30 31 31 30 29 28 25 24 23 22 21 21 20 20 20 20 21 21 22 22 23 23 23 24 24 24 24 25 26 27 28 30 31 32 33 35 37 39 41 42 44 46 47 50 52 54 58 63 68 73
24 25 26 27 28 29 28 28 29 31 31 30 28 26 25 25 23 23 22 23 23 23 24 24 24 25 26 27 29 29 29 29 29 29 30 31 32 33 35 37 39 42 43 44 47 49 50 53 58 62 67 73 77 78
25 26 26 26 26 26 26 28 28 27 28 30 32 34 34 30 27 25 27 26 25 26 27 28 29 29 29 29 30 31 31 31 31 31 31 32 33 34 36 38 42 44 44 47 48 50 55 59 65 72 75 76 73 71
Wind_Direction
168 170 165 156 163 171 166 168 166 168 182 173 183 183 182 185 175 183 191 195 196 194 195 202 209 217 227 236 242 244 241 238 237 238 242 241 242 239 235 228 227 238 229 232 235 232 229 227 233 248 240 236 243 250
168 172 171 172 163 159 162 171 172 172 174 190 184 185 181 185 193 201 196 204 197 196 202 210 219 232 234 238 239 240 243 242 238 238 236 235 242 238 228 225 226 237 233 248 241 229 223 231 235 244 230 234 245 245
174 168 174 170 155 149 162 171 170 171 172 181 185 179 178 188 198 205 207 194 194 203 210 214 222 233 237 237 241 241 238 235 232 228 226 229 240 242 222 221 230 230 249 238 226 220 225 239 237 226 234 248 243 247
153 166 170 172 164 169 166 158 172 180 175 179 183 177 176 179 184 185 187 192 199 204 210 220 237 245 244 239 239 232 226 227 225 216 211 232 236 226 217 228 230 235 236 259 221 225 238 237 236 233 243 243 240 238
149 153 153 172 169 167 172 170 168 172 174 171 176 182 187 189 189 191 195 198 199 206 217 229 240 244 241 239 234 228 219 222 218 209 208 212 223 221 222 233 240 237 224 248 227 235 240 233 227 228 234 237 236 250
155 156 160 152 159 169 180 183 184 181 180 177 176 178 177 182 182 182 185 191 194 194 185 189 197 188 197 208 227 236 220 228 217 226 219 219 215 215 226 242 231 238 233 234 239 228 232 229 227 232 233 232 242 239
161 171 173 174 161 148 149 172 191 194 190 188 184 185 183 182 184 186 190 191 194 192 190 193 192 200 174 282 299 231 226 235 233 228 221 214 224 218 233 234 227 227 228 230 227 222 222 221 223 224 234 240 236 232
157 181 184 187 189 185 181 157 159 185 194 195 189 188 195 196 196 194 195 195 198 203 214 222 225 236 266 296 316 310 246 235 230 222 214 210 221 229 241 227 225 225 228 230 232 236 237 231 228 239 245 253 234 227
150 166 191 206 187 177 209 248 197 160 182 197 197 197 200 204 206 204 204 205 212 222 230 232 234 241 247 284 323 321 331 243 224 220 213 215 221 233 237 232 227 228 230 236 234 234 233 233 236 242 244 228 217 221
161 158 180 183 173 178 183 203 207 243 251 185 192 200 205 205 207 215 215 215 216 222 230 231 244 256 267 284 312 304 317 315 220 218 220 217 219 224 233 234 238 245 263 253 240 235 226 227 232 232 223 220 224 233
181 182 185 189 170 171 175 187 192 193 207 220 225 202 195 204 209 215 217 215 219 224 233 243 252 262 272 282 292 307 302 314 266 218 224 222 218 224 232 237 241 243 246 252 251 235 249 226 223 229 222 223 227 233
193 197 196 206 210 194 199 206 205 210 210 214 211 214 225 233 215 213 216 220 224 228 236 246 254 261 269 282 290 296 295 302 293 242 228 224 223 223 231 235 238 248 251 253 247 238 236 231 228 228 229 231 235 239
213 209 206 205 216 227 232 234 236 234 236 231 242 249 262 244 230 226 226 230 233 235 241 246 253 257 265 278 281 283 291 295 288 255 236 231 228 228 229 230 227 235 243 244 243 238 235 231 229 229 231 235 240 244
210 215 219 224 227 229 230 235 243 245 246 245 259 258 245 238 233 229 230 232 232 236 242 246 248 254 269 268 267 273 282 288 281 262 245 230 229 232 235 235 235 239 241 246 247 239 238 228 229 228 231 235 239 244
228 230 230 225 222 227 232 235 240 242 242 252 251 248 252 251 249 244 233 234 235 237 239 244 249 253 256 260 261 263 272 284 283 265 254 243 232 226 229 233 237 239 237 240 245 239 237 238 237 238 241 243 245 249
131 169 192 207 217 223 225 224 224 224 225 231 231 232 230 227 226 233 235 235 235 236 239 242 248 252 254 257 259 258 268 275 273 270 259 253 243 235 229 230 231 234 239 244 246 245 249 250 249 251 251 252 255 256
87 95 103 116 146 177 191 193 205 212 209 208 209 213 209 208 208 209 214 216 218 221 225 226 228 229 233 231 225 236 243 247 246 254 258 259 252 246 244 240 238 238 238 239 240 244 247 250 253 253 253 255 257 258
68 72 81 92 96 97 109 121 116 128 190 207 209 210 210 209 209 209 207 197 179 185 194 200 210 217 218 219 223 227 230 235 234 233 238 244 249 246 240 241 246 250 252 250 248 247 245 246 248 251 253 255 256 258
67 69 71 84 104 102 100 124 110 113 137 159 174 183 195 203 206 204 200 194 193 199 202 204 212 217 221 228 238 244 248 257 259 252 244 243 245 245 243 242 242 243 246 249 251 252 254 256 257 259 260 262 264 265
55 58 66 82 83 82 84 106 106 104 108 114 122 140 172 197 203 203 203 204 209 218 222 227 233 240 244 245 247 249 250 254 261 265 265 264 262 261 262 262 262 262 262 263 263 265 266 267 268 270 271 271 272 273
59 62 67 74 73 73 67 80 74 81 84 82 95 111 115 137 178 211 222 226 222 219 227 233 236 240 242 243 245 248 255 262 266 265 263 263 263 264 265 266 267 268 267 267 267 268 269 270 271 272 273 274 275 276
61 58 56 58 55 52 62 65 63 69 69 66 68 70 77 88 161 211 220 226 229 233 237 239 237 239 242 246 250 253 254 255 256 256 256 257 259 260 262 263 262 262 263 265 267 269 270 271 272 273 274 275 276 277
54 53 54 57 61 62 63 61 61 59 57 54 49 46 32 3 335 297 252 255 253 252 252 251 252 254 255 256 258 260 261 262 263 265 266 267 267 267 268 269 270 270 271 271 272 272 272 273 274 276 277 278 279 280
59 59 60 60 59 60 60 61 59 58 59 59 59 58 54 49 44 39 3 312 283 269 264 260 259 261 262 263 264 266 268 269 270 272 273 273 274 275 275 276 276 277 278 278 279 279 279 281 282 283 284 285 285 285
58 56 58 60 60 60 60 60 59 59 60 59 59 57 54 55 57 54 49 45 38 29 13 352 330 312 300 291 288 287 285 286 286 285 285 286 287 288 288 288 288 290 289 289 290 291 291 290 290 289 289 289 289 290
54 54 54 54 56 57 56 58 59 60 59 58 58 57 57 57 56 56 54 51 46 42 37 29 19 5 348 332 321 315 308 304 301 298 297 296 295 294 293 292 293 293 290 289 291 294 296 296 295 293 293 292 291 293
49 51 51 51 51 50 50 50 51 51 52 52 52 52 52 53 53 53 53 53 54 53 51 49 44 39 33 27 22 14 2 351 343 337 330 318 312 309 311 315 317 315 311 307 304 301 299 300 298 297 298 298 297 297
41 43 43 44 43 43 42 42 42 43 41 41 40 41 41 39 38 37 36 35 34 33 30 28 26 23 21 17 13 10 5 360 354 349 343 336 328 321 316 313 310 309 307 306 304 301 300 298 297 297 297 297 298 298
34 34 34 34 34 33 31 30 29 28 27 27 27 27 25 26 23 21 19 17 15 12 9 7 6 3 1 358 352 347 342 339 336 333 329 325 323 320 315 314 313 313 312 312 312 312 311 309 306 304 302 300 298 298
25 26 27 27 26 26 25 22 18 15 12 9 6 4 2 1 360 358 357 356 355 353 349 348 347 344 341 339 339 340 339 337 336 335 333 331 330 328 326 324 323 321 319 318 317 316 315 314 313 312 310 308 306 305
12 13 15 18 20 20 18 15 12 11 9 5 1 355 351 347 343 339 336 335 333 330 330 329 328 327 326 323 322 320 319 318 319 319 318 317 317 318 318 319 319 318 317 316 315 316 315 314 313 312 311 311 311 311
357 0 2 2 4 8 11 12 7 1 359 358 356 356 353 348 343 338 334 329 325 322 320 319 319 319 318 317 316 317 317 317 317 316 316 316 317 317 319 320 320 319 318 317 317 317 317 317 317 318 318 317 314 312
347 348 351 352 352 353 355 357 1 2 355 352 349 347 348 350 347 339 336 333 329 324 320 317 315 314 314 314 315 316 315 315 314 314 314 314 314 316 319 321 322 323 322 320 322 323 324 325 326 324 321 319 317 317
Height
5300 5306 5314 5321 5327 5333 5339 5347 5354 5359 5364 5374 5380 5389 5397 5404 5412 5422 5430 5437 5444 5451 5459 5466 5472 5477 5482 5486 5487 5490 5491 5494 5497 5499 5503 5508 5511 5520 5523 5531 5541 5549 5549 5554 5558 5562 5571 5579 5584 5590 5601 5604 5604 5609
5300 5309 5317 5324 5330 5335 5341 5347 5354 5361 5369 5375 5382 5391 5398 5405 5413 5421 5429 5436 5443 5450 5457 5462 5467 5471 5474 5477 5480 5482 5484 5487 5490 5492 5496 5501 5505 5511 5518 5525 5535 5536 5541 5545 5550 5559 5562 5566 5574 5578 5586 5591 5593 5596
5303 5312 5319 5326 5333 5340 5344 5350 5357 5364 5372 5379 5385 5392 5399 5408 5414 5421 5428 5435 5442 5448 5454 5459 5463 5466 5468 5471 5473 5475 5478 5480 5483 5487 5490 5495 5496 5503 5511 5520 5522 5528 5528 5535 5539 5547 5554 5558 5564 5571 5575 5580 5582 5586
5308 5316 5323 5329 5336 5340 5345 5351 5357 5365 5373 5379 5385 5393 5400 5407 5414 5421 5427 5433 5440 5445 5450 5455 5458 5461 5463 5464 5466 5469 5472 5473 5475 5478 5481 5486 5489 5497 5504 5509 5512 5515 5522 5525 5531 5538 5542 5547 5552 5558 5565 5568 5573 5578
5313 5318 5325 5330 5337 5344 5349 5354 5361 5367 5374 5380 5386 5393 5400 5406 5413 5420 5426 5432 5438 5444 5448 5451 5453 5455 5456 5459 5460 5463 5466 5467 5468 5471 5475 5480 5482 5490 5495 5499 5502 5508 5513 5516 5524 5528 5535 5538 5542 5548 5554 5558 5563 5567
5319 5325 5332 5337 5340 5345 5352 5358 5364 5370 5376 5381 5387 5393 5399 5405 5412 5419 5425 5431 5435 5440 5444 5448 5451 5454 5455 5455 5455 5457 5459 5459 5461 5464 5468 5471 5475 5484 5486 5491 5495 5500 5505 5507 5512 5519 5525 5530 5534 5539 5545 5550 5555 5558
5324 5329 5335 5341 5344 5349 5355 5359 5366 5372 5378 5382 5388 5394 5400 5406 5412 5418 5424 5429 5433 5437 5441 5446 5449 5451 5451 5452 5452 5451 5453 5453 5454 5457 5460 5463 5469 5473 5479 5483 5488 5492 5497 5501 5504 5509 5515 5521 5527 5533 5538 5542 5545 5548
5329 5333 5338 5344 5348 5353 5357 5362 5367 5371 5377 5382 5388 5394 5400 5405 5411 5416 5421 5426 5430 5435 5440 5443 5445 5447 5448 5449 5448 5447 5446 5446 5448 5450 5453 5457 5462 5469 5472 5476 5481 5486 5490 5493 5496 5501 5506 5512 5517 5523 5528 5532 5534 5537
5331 5338 5342 5347 5352 5356 5360 5362 5365 5371 5376 5382 5387 5392 5399 5405 5409 5414 5419 5423 5428 5434 5436 5439 5442 5444 5445 5444 5444 5443 5440 5440 5440 5443 5446 5452 5456 5462 5465 5470 5475 5479 5482 5484 5489 5493 5498 5503 5508 5513 5517 5520 5523 5529
5334 5340 5345 5349 5353 5358 5362 5365 5369 5372 5376 5380 5386 5391 5396 5401 5407 5412 5416 5420 5424 5428 5432 5434 5437 5439 5441 5440 5439 5441 5438 5436 5436 5440 5443 5446 5452 5456 5459 5463 5467 5471 5475 5479 5484 5487 5490 5494 5498 5504 5508 5512 5516 5519
5339 5342 5346 5350 5355 5359 5363 5367 5371 5375 5378 5381 5385 5388 5393 5397 5402 5405 5410 5415 5419 5423 5426 5429 5431 5433 5435 5435 5436 5435 5435 5434 5433 5435 5437 5439 5445 5448 5452 5456 5461 5465 5470 5474 5477 5480 5483 5486 5489 5494 5498 5502 5506 5509
5341 5344 5348 5351 5354 5358 5362 5365 5369 5372 5376 5380 5384 5387 5391 5393 5396 5401 5404 5410 5413 5417 5421 5423 5426 5428 5429 5431 5431 5431 5430 5430 5428 5428 5429 5432 5438 5441 5445 5450 5454 5459 5463 5466 5470 5472 5475 5478 5482 5485 5489 5493 5497 5500
5343 5345 5347 5349 5352 5354 5357 5360 5364 5368 5373 5377 5380 5383 5386 5389 5391 5394 5399 5404 5408 5411 5414 5417 5419 5421 5423 5424 5425 5424 5424 5423 5422 5422 5422 5425 5429 5434 5438 5443 5447 5451 5456 5459 5462 5465 5468 5471 5473 5477 5480 5483 5486 5488
5341 5342 5344 5346 5349 5352 5354 5357 5359 5363 5368 5371 5374 5376 5379 5381 5385 5389 5393 5396 5401 5404 5407 5409 5412 5414 5415 5416 5417 5418 5417 5417 5417 5418 5419 5421 5424 5427 5430 5435 5440 5444 5448 5450 5454 5458 5460 5462 5465 5467 5469 5471 5474 5476
5339 5339 5340 5341 5343 5345 5347 5349 5351 5355 5358 5362 5364 5367 5371 5375 5377 5380 5384 5389 5393 5396 5399 5401 5403 5405 5405 5407 5409 5411 5411 5410 5410 5412 5414 5415 5417 5421 5424 5427 5430 5435 5439 5443 5446 5449 5451 5453 5455 5457 5458 5460 5462 5464
5339 5339 5339 5340 5341 5342 5343 5345 5347 5348 5348 5351 5353 5356 5359 5363 5367 5371 5375 5380 5384 5386 5389 5391 5393 5395 5397 5399 5401 5403 5405 5405 5405 5405 5408 5409 5412 5415 5417 5419 5422 5425 5428 5432 5435 5438 5440 5442 5443 5445 5446 5447 5449 5450
5342 5341 5341 5341 5341 5341 5341 5342 5343 5344 5347 5348 5350 5352 5354 5357 5359 5363 5366 5370 5373 5378 5381 5384 5387 5390 5393 5394 5396 5398 5400 5401 5400 5401 5402 5404 5405 5407 5409 5412 5414 5416 5418 5421 5423 5425 5427 5428 5429 5431 5432 5433 5434 5434
5345 5345 5343 5343 5343 5343 5344 5344 5345 5345 5346 5348 5349 5350 5352 5354 5356 5359 5362 5366 5370 5374 5378 5381 5384 5386 5389 5391 5392 5394 5395 5397 5397 5397 5398 5399 5400 5401 5403 5404 5406 5407 5409 5410 5412 5413 5414 5415 5416 5416 5417 5417 5418 5418
5351 5350 5349 5348 5347 5347 5348 5347 5348 5348 5349 5349 5350 5351 5353 5354 5356 5358 5361 5364 5368 5371 5374 5377 5380 5382 5385 5386 5388 5389 5390 5392 5393 5393 5394 5395 5395 5396 5397 5398 5398 5399 5400 5400 5401 5402 5403 5403 5403 5403 5403 5403 5402 5401
5356 5354 5354 5353 5352 5351 5352 5351 5351 5351 5351 5352 5352 5353 5353 5354 5356 5357 5359 5362 5365 5368 5370 5373 5375 5378 5380 5381 5382 5384 5385 5386 5387 5388 5388 5389 5390 5391 5391 5391 5392 5392 5392 5392 5392 5392 5393 5392 5392 5391 5390 5389 5388 5386
5361 5359 5358 5357 5355 5355 5356 5354 5354 5353 5353 5353 5353 5354 5355 5355 5356 5357 5359 5360 5363 5364 5366 5368 5370 5372 5373 5375 5376 5378 5379 5379 5380 5381 5381 5382 5382 5382 5382 5382 5383 5382 5382 5382 5382 5382 5382 5381 5379 5378 5377 5375 5373 5371
5366 5364 5362 5361 5360 5360 5359 5358 5358 5357 5357 5356 5356 5356 5356 5356 5356 5357 5358 5359 5359 5360 5362 5363 5365 5366 5367 5368 5368 5369 5370 5371 5371 5372 5372 5372 5372 5372 5372 5372 5372 5371 5371 5370 5369 5368 5367 5364 5363 5362 5360 5357 5354 5351
5374 5372 5371 5369 5367 5365 5364 5362 5361 5360 5359 5358 5358 5358 5358 5357 5357 5357 5357 5357 5358 5358 5359 5359 5360 5361 5361 5361 5362 5362 5363 5363 5362 5362 5362 5362 5362 5362 5362 5361 5360 5359 5358 5357 5356 5355 5353 5351 5349 5347 5344 5339 5336 5333
5385 5386 5383 5379 5375 5373 5371 5369 5367 5365 5364 5363 5362 5361 5360 5359 5359 5358 5357 5357 5357 5357 5356 5356 5356 5356 5356 5356 5356 5356 5355 5355 5354 5353 5352 5352 5351 5350 5349 5348 5347 5345 5343 5342 5341 5339 5336 5334 5331 5328 5324 5321 5317 5315
5404 5400 5394 5389 5386 5383 5380 5377 5375 5373 5371 5370 5367 5366 5364 5363 5362 5361 5360 5359 5358 5357 5356 5356 5355 5354 5354 5353 5352 5351 5350 5348 5347 5346 5345 5344 5343 5342 5340 5338 5337 5335 5332 5330 5328 5325 5322 5320 5318 5314 5310 5307 5304 5301
5413 5408 5405 5401 5398 5394 5391 5388 5385 5383 5380 5377 5375 5373 5371 5369 5367 5365 5363 5362 5360 5359 5357 5356 5355 5353 5352 5351 5349 5348 5347 5345 5344 5342 5341 5339 5337 5335 5333 5330 5328 5327 5325 5323 5320 5317 5314 5311 5307 5304 5300 5296 5292 5290
5421 5417 5414 5411 5407 5404 5401 5398 5395 5392 5389 5386 5384 5381 5379 5376 5374 5372 5369 5367 5365 5363 5361 5359 5357 5355 5353 5351 5349 5347 5345 5343 5342 5340 5338 5336 5334 5332 5329 5327 5325 5323 5320 5318 5315 5312 5308 5304 5300 5296 5291 5285 5280 5275
5429 5425 5421 5418 5414 5411 5408 5404 5402 5399 5396 5393 5390 5387 5385 5382 5380 5377 5374 5371 5369 5367 5364 5362 5359 5356 5354 5352 5349 5347 5345 5343 5341 5339 5337 5334 5332 5329 5327 5324 5321 5318 5314 5311 5307 5303 5300 5295 5290 5285 5279 5273 5266 5258
5435 5431 5427 5423 5419 5416 5413 5409 5406 5403 5400 5397 5394 5391 5389 5386 5383 5380 5377 5374 5371 5368 5365 5362 5360 5357 5354 5352 5349 5346 5343 5341 5338 5336 5333 5330 5327 5325 5322 5318 5314 5310 5306 5301 5296 5291 5286 5281 5275 5269 5263 5256 5249 5242
5440 5435 5431 5427 5423 5420 5416 5412 5408 5404 5401 5398 5395 5392 5389 5386 5383 5380 5377 5374 5372 5369 5366 5363 5360 5357 5354 5351 5348 5345 5341 5338 5335 5331 5327 5324 5321 5317 5313 5310 5306 5301 5297 5292 5286 5280 5273 5267 5260 5253 5246 5238 5230 5222
5442 5438 5434 5430 5427 5422 5418 5413 5409 5405 5401 5398 5394 5391 5387 5384 5381 5378 5374 5371 5368 5365 5362 5359 5356 5353 5350 5347 5344 5341 5338 5334 5330 5327 5323 5318 5314 5310 5306 5302 5297 5292 5286 5281 5274 5268 5262 5255 5247 5239 5231 5221 5210 5198
5442 5438 5434 5430 5426 5423 5418 5414 5409 5403 5399 5395 5392 5389 5385 5381 5377 5374 5370 5366 5363 5359 5356 5353 5350 5347 5343 5340 5336 5332 5329 5326 5322 5318 5315 5310 5306 5302 5297 5292 5287 5281 5275 5269 5262 5254 5247 5239 5231 5221 5211 5200 5187 5173
5439 5435 5432 5428 5424 5421 5417 5413 5409 5406 5400 5394 5389 5384 5381 5378 5374 5370 5366 5362 5358 5354 5350 5346 5343 5339 5336 5332 5328 5325 5321 5317 5313 5309 5306 5301 5297 5292 5288 5282 5277 5270 5263 5256 5248 5241 5233 5224 5213 5202 5189 5175 5161 5148